OpenBCM V2.0.3 (Linux)

Packet Radio Mailbox

IZ3LSV

[San Dona' di P. JN]

 Login: GUEST





  
I0OJJ  > AMSAT    03.06.26 02:31l 329 Lines 15514 Bytes #999 (0) @ WW
BID : 21W_IR0EQ
Read: GUEST
Subj: 2Line Orbital Elements
Path: IZ3LSV<I0OJJ<IR0EQ
Sent: 260603/0026z @:IR0EQ.ITA.EU [Rome] $:21W_IR0EQ

>From i0ojj%ir0eq.ita.eu@i0ojj.ampr.org Wed Jun  3 02:28:24 2026
Received: from i0ojj.ampr.org by i0ojj.ampr.org (JNOS2.0q.1) with SMTP
	id AA17061491 ; Wed, 03 Jun 2026 02:28:24 +0200
Message-Id: <21W_IR0EQ@i0ojj.bbs>
>From: i0ojj@ir0eq.ita.eu
X-JNOS-User-Port: Telnet   (i0ojj @ 44.27.18.9)  ->   Sending message

>From i0ojj@rgate.ampr.org Wed Jun  3 02:26:24 2026
Received: from rgate.ampr.org by rgate.ampr.org (JNOS2.0q.1) with SMTP
	id AA2660 ; Wed, 03 Jun 2026 02:26:24 +0200
Received: by rgate.ampr.org with SMTP
	id AA2657 ; Wed, 03 Jun 2026 02:26:10 +0200
Message-Id: <2658@rgate.ampr.org>
>From: i0ojj@rgate.ampr.org

SB KEPS @ AMSAT  $ORB26154.1
2Line Orbital Elements 26154.AMSAT

QST de W1STR

AMSAT Orbital Elements for Amateur Satellites in TLE Format
>From Orbital Analysis Office
New England Sci-Tech STEM Education Center
Natick MA June 03, 2026
To all radio amateurs


These element sets describe the orbits of various satellites 
in use by the amateur radio community. For details see:
www.amsat.org/keplerian-elements-formats/

A daily update of element sets is available at:
www.amsat.org/tle/daily-bulletin.txt
or without bulletin text:
www.amsat.org/tle/dailytle.txt


AO-07
1 07530U 74089B   26153.87239764 -.00000041  00000-0  35809-4 0  9991
2 07530 101.9902 166.9696 0012418 156.8456 324.2320 12.53697889358722
UO-11
1 14781U 84021B   26153.79035429  .00001618  00000-0  17039-3 0  9991
2 14781  97.8050 119.5270 0006423 223.7426 136.3284 14.90745991254982
AO-27
1 22825U 93061C   26153.66545971  .00000147  00000-0  72832-4 0  9996
2 22825  98.6883 221.0837 0009195 137.7271 222.4622 14.30938169704924
FO-29
1 24278U 96046B   26153.15436520 -.00000027  00000-0  53846-5 0  9992
2 24278  98.5252   4.0850 0350593 135.3450 227.6502 13.53273579471134
GO-32
1 25397U 98043D   26152.54067156  .00000078  00000-0  54078-4 0  9993
2 25397  99.0064 144.9051 0000247 232.4252 127.6903 14.24425146449102
ISS
1 25544U 98067A   26153.80661716  .00009644  00000-0  17934-3 0  9992
2 25544  51.6332  11.2890 0007138 126.7794 233.3850 15.49568375569522
NO-44
1 26931U 01043C   26153.77114007  .00000185  00000-0  99949-4 0  9991
2 26931  67.0512 281.5573 0006121 264.0012  96.0393 14.31950501288388
SO-50
1 27607U 02058C   26153.52232677  .00001179  00000-0  15601-3 0  9992
2 27607  64.5505 174.3572 0075530 265.1514  94.0965 14.83013106262282
CO-55
1 27844U 03031E   26152.58256041  .00000351  00000-0  17079-3 0  9995
2 27844  98.6737 161.3379 0008585 225.7679 134.2796 14.24325402189457
RS-22
1 27939U 03042A   26153.82749902  .00001233  00000-0  19829-3 0  9998
2 27939  98.3462 337.7811 0010456 320.2283 164.2972 14.73440845213434
CO-65
1 32785U 08021C   26153.79674903  .00005275  00000-0  33465-3 0  9991
2 32785  97.8272 134.9185 0010815  80.8207 279.4244 15.09305376983026
CO-66
1 32791U 08021J   26153.57483797  .00018842  00000-0  60750-3 0  9994
2 32791  97.7514 150.7815 0003135  43.7530 316.3959 15.32217290985053
RS-30
1 32953U 08025A   26153.77337035 -.00000010  00000-0 -14082-3 0  9990
2 32953  82.5048   4.4082 0019482 346.0627  13.9912 12.43178579817908
SRMSAT
1 37841U 11058D   26152.32622016  .00000395  00000-0  70452-4 0  9995
2 37841  19.9701 155.4732 0011864  30.5063  85.9028 14.11572059755572
ZACUBE-1
1 39417U 13066B   26153.14273308  .00004811  00000-0  37474-3 0  9997
2 39417  97.8108 115.3981 0039924 301.0128  58.7178 15.01078568678478
Delfi-N3xt
1 39428U 13066N   26153.72085264  .00006938  00000-0  60833-3 0  9992
2 39428  97.8345  74.0470 0072814 254.5280 104.7891 14.94924533672463
GOMX-1
1 39430U 13066Q   26153.81792420  .00002596  00000-0  39293-3 0  9996
2 39430  97.6489 355.1876 0129884 123.2168 238.1569 14.69402084667803
LO-74
1 39440U 13066AA  26153.52661498  .00004808  00000-0  44530-3 0  9993
2 39440  97.8903 102.4452 0059428  76.5385 284.2448 14.93633122674809
AO-73
1 39444U 13066AE  26153.14054320  .00008394  00000-0  52350-3 0  9998
2 39444  97.8267 124.2748 0034712 254.2944 105.4454 15.09290124677398
DTUSAT-2
1 40030U 14033W   26153.57453287  .00007230  00000-0  39295-3 0  9999
2 40030  98.0862 150.3764 0006091 288.4799  71.5769 15.14816826650470
LILACSAT-2
1 40908U 15049K   26153.82242767  .00018970  00000-0  32861-3 0  9993
2 40908  97.4657 190.1221 0005455 314.7822  45.2985 15.50942804593528
Horyu-4
1 41340U 16012D   26152.43486084  .00260233  00000-0  10081-2 0  9993
2 41340  30.9850 193.7734 0002293 171.6706 188.3991 15.85409012568303
Lapan A3
1 41603U 16040E   26153.83143880  .00003786  00000-0  12086-3 0  9991
2 41603  97.1484 150.4504 0012102  71.2523 289.0032 15.33008872552614
CAS-2T
1 41847U 16066G   26153.83397811  .00001701  00000-0  24651-3 0  9990
2 41847  98.3818 229.7336 0342206 172.9288 187.6916 14.44644451502720
TechnoSat
1 42829U 17042E   26153.02280563  .00003449  00000-0  24723-3 0  9993
2 42829  97.4272 311.2609 0018927 141.2536 219.0052 15.04861453484427
AO-91
1 43017U 17073E   26153.45601544  .00011170  00000-0  48710-3 0  9992
2 43017  97.4714  20.9743 0151802  20.1509 340.5626 15.12443665463161
S-Net D
1 43186U 18014G   26153.68267546  .00006229  00000-0  32257-3 0  9998
2 43186  97.5374  58.5649 0009953  73.2685 286.9639 15.16525352456567
S-Net B
1 43187U 18014H   26153.69384522  .00006040  00000-0  31312-3 0  9996
2 43187  97.5381  58.5621 0010520  68.9667 291.2690 15.16495297456569
S-Net A
1 43188U 18014J   26153.68162953  .00006293  00000-0  32574-3 0  9999
2 43188  97.5391  58.7560 0010454  69.5776 290.6578 15.16533195456567
S-Net C
1 43189U 18014K   26153.69764661  .00005958  00000-0  30892-3 0  9993
2 43189  97.5408  58.8443 0011699  62.7743 297.4681 15.16486964455110
Ten-Koh
1 43677U 18084G   26153.60952528  .00003230  00000-0  24556-3 0  9995
2 43677  98.0769 345.3575 0009983 162.4143 197.7428 15.02873320413973
PO-101
1 43678U 18084H   26153.83167258  .00003448  00000-0  27940-3 0  9990
2 43678  98.1149 349.4190 0011824 218.1531 141.8855 15.00380899414069
QO-100
1 43700U 18090A   26153.86830674  .00000000  00000-0  00000+0 0  9990
2 43700   0.0199 350.3119 0002002 115.5759 123.8202  1.00271106 27537
MinXSS-2
1 43758U 18099A   26153.85604604  .00034487  00000-0  70870-3 0  9995
2 43758  97.4542 229.7313 0006030 317.7248  42.3536 15.45900126411910
AO-95
1 43770U 18099N   26153.65690558  .00013340  00000-0  51466-3 0  9995
2 43770  97.4393 213.9599 0009472  47.7228 312.4812 15.26380169411006
SNUSat 2
1 43782U 18099AA  26153.66956322  .00009033  00000-0  40263-3 0  9990
2 43782  97.4063 207.2781 0009726 356.5821   3.5347 15.21606603410823
SnugLite
1 43784U 18099AC  26153.66171705  .00012604  00000-0  48032-3 0  9996
2 43784  97.3873 208.0873 0002374  16.9884 343.1434 15.26840719411107
ITASat 1
1 43786U 18099AE  26153.66063485  .00007482  00000-0  36131-3 0  9998
2 43786  97.4034 205.4635 0013650  49.5745 310.6677 15.18859489410701
EAGLET 1
1 43790U 18099AJ  26153.56797693  .00004725  00000-0  27217-3 0  9999
2 43790  97.4232 203.6241 0012040  43.1689 317.0484 15.12819607410123
ESEO
1 43792U 18099AL  26153.67864837  .00001142  00000-0  86262-4 0  9994
2 43792  97.3967 191.6889 0012795  30.6248 329.5723 15.04196474409620
JO-97
1 43803U 18099AX  26153.87000389  .00017885  00000-0  55972-3 0  9997
2 43803  97.4135 216.6595 0004372 332.8214  27.2798 15.33171132411437
Suomi 100
1 43804U 18099AY  26153.67050821  .00013740  00000-0  50369-3 0  9993
2 43804  97.4192 214.1208 0008951 339.6537  20.4344 15.28070071411206
ISAT
1 43879U 18111D   26153.31839049  .00091958  00000-0  10218-2 0  9993
2 43879  97.5892  87.4267 0003984  48.7895 311.3705 15.62594057408840
UWE-4
1 43880U 18111E   26153.84312433  .00034156  00000-0  71901-3 0  9990
2 43880  97.5861  81.5836 0008341  34.8813 325.2980 15.45177103408561
Sparrow
1 43881U 18111F   26153.74843189  .00133323  00000-0  10816-2 0  9990
2 43881  97.6134  93.2631 0005444  95.1249 265.0634 15.70314458409105
Prox-1
1 44339U 19036A   26153.39522389  .00013271  00000-0  13054-2 0  9999
2 44339  23.9937 213.0381 0005645 216.2369 143.7749 14.90241213371266
Taurus 1
1 44530U 19059C   26153.83227013  .00007419  00000-0  11911-2 0  9999
2 44530  98.6409 317.7718 0008157   5.6989 354.4308 14.71934649356533
TO-108
1 44881U 19093C   26153.84166878  .00001508  00000-0  17619-3 0  9993
2 44881  97.7536 226.4233 0014657 129.8027 230.4482 14.86497043349283
RS-44
1 44909U 19096E   26153.07249663  .00000020  00000-0  31756-4 0  9993
2 44909  82.5220 349.7510 0217486 179.4465 180.6919 12.79748587300410
SALSAT
1 46495U 20068K   26153.23105176  .00008802  00000-0  30965-3 0  9990
2 46495  97.8847 155.3881 0009594   6.2799 353.8559 15.29565240313075
CSS (TIANHE-1)
1 48274U 21035A   26153.00113511  .00022625  00000-0  27343-3 0  9994
2 48274  41.4697  54.3745 0010159 325.2059  34.8114 15.60120646290797
CUTE
1 49263U 21088D   26153.21613040  .00392104  00000-0  14460-2 0  9993
2 49263  97.4179 251.1170 0006483 260.9552  99.0985 15.87233758260175
TeikyoSat 4
1 49396U 21102B   26153.66948347  .00001925  00000-0  12390-3 0  9996
2 49396  97.3673 183.7174 0011606 351.8946   8.2094 15.09454998250531
Z-Sat
1 49399U 21102E   26153.82979821  .00004969  00000-0  24593-3 0  9997
2 49399  97.3327 189.5889 0015031 300.5931  59.3820 15.18150782251267
KOSEN 1
1 49402U 21102H   26152.08382357  .00008806  00000-0  33841-3 0  9991
2 49402  97.3192 194.5556 0011955 262.5049  97.4832 15.26593801251568
HO-113
1 50466U 21131B   26153.82361043  .00000513  00000-0  17199-3 0  9992
2 50466  98.4978 246.2912 0005011 130.4461 229.7166 14.41343095233049
SNUGLITE 2
1 52899U 22065F   26153.81818698  .00001149  00000-0  22678-3 0  9997
2 52899  98.2186 298.6759 0008699  72.9663 287.2492 14.64318814208891
